Flag for Canada Weather past 2 weeks in Halifax, Nova Scotia, Canada

Now
18 °F

Clear.


Feels Like: 7 °F
Forecast: 15 / 29 °F
Wind: 8 mph from Southwest

Location: Halifax International Airport

Current Time: Feb 28, 2015 at 8:35:50 PM

Latest Report: Feb 28, 2015 at 8:00 PM


Visibility: 15 mi

Pressure: 30.60 "Hg

Humidity: 62%

Dew point: 7 °F

Location of HalifaxLocation

Historic Weather in Halifax — Graph

°F

Halifax temperature yesterday

Maximum temperature yesterday: 18 °F (at 2:00 PM)
Minimum temperature yesterday: 7 °F (at 7:00 AM)
Average temperature yesterday: 12 °F

Past Weeks' High & Low Weather Summary

 TemperatureHumidityPressure
High41 °F (Feb 22, 8:00 AM)100% (Feb 15, 9:00 AM)30.59 "Hg (Feb 15, 9:00 AM)
Low-8 °F (Feb 24, 6:00 AM)36% (Feb 28, 4:00 PM)28.68 "Hg (Feb 15, 8:00 PM)
Average17 °F75%29.84 "Hg
* Reported Feb 13 7:00 PM — Feb 28 7:00 PM, Halifax, Weather by CustomWeather, © 2015

Note: Actual official high and low records may vary slightly from our data, if they occured in-between our weather recording intervals... More about our weather records

Advertising

Halifax weather history for previous 24 hours

 ConditionsComfort  
Time TempWeatherWind HumidityBarometerVisibility
7:00 PM
Sat, Feb 28
19 °FClear.8 mph58%30.59 "Hg15 mi
6:00 PM21 °FClear.5 mph49%30.58 "Hg15 mi
5:00 PM25 °FSunny.12 mph39%30.57 "Hg15 mi
4:00 PM25 °FSunny.13 mph36%30.56 "Hg15 mi
3:00 PM25 °FSunny.14 mph39%30.56 "Hg15 mi
2:00 PM25 °FSunny.9 mph42%30.56 "Hg15 mi
1:00 PM23 °FSunny.10 mph42%30.58 "Hg15 mi
12:00 PM19 °FSunny.8 mph45%30.59 "Hg15 mi
11:00 AM18 °FSunny.8 mph49%30.59 "Hg15 mi
10:00 AM16 °FSunny.6 mph45%30.59 "Hg15 mi
9:00 AM12 °FSunny.2 mph48%30.57 "Hg15 mi
8:00 AM9 °FSunny.No wind56%30.54 "Hg15 mi
7:00 AM9 °FSunny.2 mph56%30.52 "Hg15 mi
6:00 AM7 °FClear.6 mph66%30.51 "Hg15 mi
5:00 AM7 °FClear.6 mph72%30.48 "Hg15 mi
4:00 AM9 °FClear.7 mph66%30.45 "Hg15 mi
3:00 AM9 °FClear.8 mph72%30.42 "Hg15 mi
2:00 AM9 °FClear.7 mph72%30.41 "Hg15 mi
1:00 AM9 °FClear.9 mph78%30.38 "Hg15 mi
12:00 AM9 °FClear.8 mph78%30.37 "Hg15 mi
11:00 PM
Fri, Feb 27
9 °FClear.9 mph78%30.36 "Hg15 mi
10:00 PM10 °FClear.13 mph72%30.36 "Hg15 mi
9:00 PM10 °FClear.7 mph67%30.34 "Hg15 mi
8:00 PM10 °FClear.8 mph67%30.31 "Hg15 mi
Weather by CustomWeather, © 2015

See weather overviewHow to use our weather pages